Time,TemperatureF,DewpointF,PressureIn,WindDirection,WindDirectionDegrees,WindSpeedMPH,WindSpeedGustMPH,Humidity,HourlyPrecipIn,Conditions,Clouds,dailyrainin,SoftwareType,DateUTC
2013-08-23 00:00:00,71.5,69.4,29.87,SSW,208,0.0,0.0,93,0.00,,,0.00,Wunderground v.1.15,2013-08-23 04:00:00,
2013-08-23 00:05:00,71.4,69.3,29.86,WSW,252,0.0,0.0,93,0.00,,,0.00,Wunderground v.1.15,2013-08-23 04:05:00,
2013-08-23 00:10:00,71.4,69.6,29.87,SSW,205,0.0,0.0,94,0.00,,,0.00,Wunderground v.1.15,2013-08-23 04:10:00,
2013-08-23 00:15:00,71.4,69.6,29.87,WNW,285,0.0,0.0,94,0.00,,,0.00,Wunderground v.1.15,2013-08-23 04:15:00,
2013-08-23 00:20:00,71.3,69.5,29.87,SSW,197,0.0,1.0,94,0.00,,,0.00,Wunderground v.1.15,2013-08-23 04:20:00,
2013-08-23 00:25:00,71.4,69.6,29.87,SW,232,0.0,1.0,94,0.00,,,0.00,Wunderground v.1.15,2013-08-23 04:25:00,
2013-08-23 00:35:00,71.3,69.5,29.87,ESE,112,0.0,1.0,94,0.00,,,0.00,Wunderground v.1.15,2013-08-23 04:35:00,
2013-08-23 00:40:00,71.3,69.5,29.87,WSW,257,0.0,1.0,94,0.00,,,0.00,Wunderground v.1.15,2013-08-23 04:40:00,
2013-08-23 00:45:00,71.2,69.4,29.87,NNW,336,0.0,1.0,94,0.00,,,0.00,Wunderground v.1.15,2013-08-23 04:45:00,
2013-08-23 00:50:00,71.2,69.4,29.87,SSW,198,0.0,0.0,94,0.00,,,0.00,Wunderground v.1.15,2013-08-23 04:50:00,
2013-08-23 00:55:00,71.2,69.4,29.87,WSW,252,0.0,2.0,94,0.00,,,0.00,Wunderground v.1.15,2013-08-23 04:55:00,
2013-08-23 01:00:00,71.1,69.3,29.87,SSW,203,1.0,1.0,94,0.00,,,0.00,Wunderground v.1.15,2013-08-23 05:00:00,
2013-08-23 01:05:00,71.1,69.3,29.86,NW,321,1.0,1.0,94,0.00,,,0.00,Wunderground v.1.15,2013-08-23 05:05:00,
2013-08-23 01:10:00,71.1,69.3,29.86,SSW,194,0.0,2.0,94,0.00,,,0.00,Wunderground v.1.15,2013-08-23 05:10:00,
2013-08-23 01:20:00,71.1,69.3,29.86,SW,215,1.0,1.0,94,0.00,,,0.00,Wunderground v.1.15,2013-08-23 05:20:00,
2013-08-23 01:25:00,71.0,69.2,29.86,SW,226,1.0,1.0,94,0.00,,,0.00,Wunderground v.1.15,2013-08-23 05:25:00,
2013-08-23 01:30:00,71.1,69.3,29.86,WSW,255,1.0,1.0,94,0.00,,,0.00,Wunderground v.1.15,2013-08-23 05:30:00,
2013-08-23 01:35:00,71.0,69.2,29.86,SW,231,1.0,1.0,94,0.00,,,0.00,Wunderground v.1.15,2013-08-23 05:35:00,
2013-08-23 01:40:00,71.0,69.2,29.86,WSW,243,1.0,4.0,94,0.00,,,0.00,Wunderground v.1.15,2013-08-23 05:40:00,
2013-08-23 01:45:00,70.9,69.1,29.86,WNW,283,1.0,4.0,94,0.00,,,0.00,Wunderground v.1.15,2013-08-23 05:45:00,
2013-08-23 01:50:00,70.8,69.0,29.86,NW,319,1.0,1.0,94,0.00,,,0.00,Wunderground v.1.15,2013-08-23 05:50:00,
2013-08-23 01:55:00,70.8,69.0,29.87,SE,134,1.0,1.0,94,0.00,,,0.00,Wunderground v.1.15,2013-08-23 05:55:00,
2013-08-23 02:05:00,70.7,69.2,29.87,SW,231,1.0,1.0,95,0.00,,,0.00,Wunderground v.1.15,2013-08-23 06:05:00,
2013-08-23 02:10:00,70.7,69.2,29.86,NW,307,1.0,1.0,95,0.00,,,0.00,Wunderground v.1.15,2013-08-23 06:10:00,
2013-08-23 02:15:00,70.7,69.2,29.86,NW,311,1.0,1.0,95,0.00,,,0.00,Wunderground v.1.15,2013-08-23 06:15:00,
2013-08-23 02:20:00,70.6,69.1,29.86,NW,307,1.0,1.0,95,0.00,,,0.00,Wunderground v.1.15,2013-08-23 06:20:00,
2013-08-23 02:25:00,70.6,69.1,29.86,NW,305,2.0,3.0,95,0.00,,,0.00,Wunderground v.1.15,2013-08-23 06:25:00,
2013-08-23 02:30:00,70.5,69.0,29.86,NW,305,3.0,5.0,95,0.00,,,0.00,Wunderground v.1.15,2013-08-23 06:30:00,
2013-08-23 02:35:00,70.5,69.0,29.86,NW,317,3.0,5.0,95,0.00,,,0.00,Wunderground v.1.15,2013-08-23 06:35:00,
2013-08-23 02:40:00,70.5,69.0,29.86,NW,307,3.0,3.0,95,0.00,,,0.00,Wunderground v.1.15,2013-08-23 06:40:00,
2013-08-23 02:50:00,70.5,69.0,29.86,NW,311,4.0,6.0,95,0.00,,,0.00,Wunderground v.1.15,2013-08-23 06:50:00,
2013-08-23 02:55:00,70.5,69.0,29.86,WNW,288,4.0,6.0,95,0.00,,,0.00,Wunderground v.1.15,2013-08-23 06:55:00,
2013-08-23 03:00:00,70.5,69.0,29.86,NW,312,3.0,3.0,95,0.00,,,0.00,Wunderground v.1.15,2013-08-23 07:00:00,
2013-08-23 03:05:00,70.5,69.0,29.86,NW,324,3.0,6.0,95,0.00,,,0.00,Wunderground v.1.15,2013-08-23 07:05:00,
2013-08-23 03:10:00,70.5,69.0,29.86,NW,311,4.0,4.0,95,0.00,,,0.00,Wunderground v.1.15,2013-08-23 07:10:00,
2013-08-23 03:15:00,70.4,68.9,29.86,NNW,327,4.0,4.0,95,0.00,,,0.00,Wunderground v.1.15,2013-08-23 07:15:00,
2013-08-23 03:20:00,70.4,68.6,29.86,West,271,4.0,4.0,94,0.00,,,0.00,Wunderground v.1.15,2013-08-23 07:20:00,
2013-08-23 03:30:00,70.3,68.8,29.86,NW,309,4.0,4.0,95,0.00,,,0.00,Wunderground v.1.15,2013-08-23 07:30:00,
2013-08-23 03:35:00,70.3,68.8,29.86,NW,304,4.0,4.0,95,0.00,,,0.00,Wunderground v.1.15,2013-08-23 07:35:00,
2013-08-23 03:40:00,70.3,68.8,29.86,NW,305,4.0,4.0,95,0.00,,,0.00,Wunderground v.1.15,2013-08-23 07:40:00,
2013-08-23 03:45:00,70.3,68.8,29.86,NW,304,4.0,4.0,95,0.00,,,0.00,Wunderground v.1.15,2013-08-23 07:45:00,
2013-08-23 03:50:00,70.4,68.6,29.85,NW,315,4.0,4.0,94,0.00,,,0.00,Wunderground v.1.15,2013-08-23 07:50:00,
2013-08-23 03:55:00,70.4,68.6,29.85,NW,319,5.0,5.0,94,0.00,,,0.00,Wunderground v.1.15,2013-08-23 07:55:00,
2013-08-23 04:00:00,70.4,68.6,29.85,NW,315,5.0,5.0,94,0.00,,,0.00,Wunderground v.1.15,2013-08-23 08:00:00,
2013-08-23 04:10:00,70.6,68.8,29.86,NW,322,4.0,5.0,94,0.00,,,0.00,Wunderground v.1.15,2013-08-23 08:10:00,
2013-08-23 04:15:00,70.6,68.5,29.86,NW,309,4.0,5.0,93,0.00,,,0.00,Wunderground v.1.15,2013-08-23 08:15:00,
2013-08-23 04:20:00,70.7,68.6,29.86,NW,322,4.0,4.0,93,0.00,,,0.00,Wunderground v.1.15,2013-08-23 08:20:00,
2013-08-23 04:25:00,70.8,68.7,29.86,NNW,330,4.0,4.0,93,0.00,,,0.00,Wunderground v.1.15,2013-08-23 08:25:00,
2013-08-23 04:30:00,70.9,68.5,29.86,NW,322,4.0,7.0,92,0.00,,,0.00,Wunderground v.1.15,2013-08-23 08:30:00,
2013-08-23 04:35:00,71.1,68.7,29.86,NW,322,5.0,7.0,92,0.00,,,0.00,Wunderground v.1.15,2013-08-23 08:35:00,
2013-08-23 04:40:00,71.1,68.7,29.86,NW,309,4.0,4.0,92,0.00,,,0.00,Wunderground v.1.15,2013-08-23 08:40:00,
2013-08-23 04:45:00,71.2,68.4,29.86,NNW,328,4.0,4.0,91,0.00,,,0.00,Wunderground v.1.15,2013-08-23 08:45:00,
2013-08-23 04:55:00,71.3,68.5,29.86,NW,318,5.0,6.0,91,0.00,,,0.00,Wunderground v.1.15,2013-08-23 08:55:00,
2013-08-23 05:00:00,71.4,68.3,29.86,NNW,331,5.0,5.0,90,0.00,,,0.00,Wunderground v.1.15,2013-08-23 09:00:00,
2013-08-23 05:05:00,71.4,68.3,29.86,NW,315,5.0,5.0,90,0.00,,,0.00,Wunderground v.1.15,2013-08-23 09:05:00,
2013-08-23 05:10:00,71.4,68.3,29.87,WNW,302,5.0,5.0,90,0.00,,,0.00,Wunderground v.1.15,2013-08-23 09:10:00,
2013-08-23 05:15:00,71.4,68.3,29.87,NW,315,5.0,5.0,90,0.00,,,0.00,Wunderground v.1.15,2013-08-23 09:15:00,
2013-08-23 05:20:00,71.4,68.3,29.87,NW,319,5.0,5.0,90,0.00,,,0.00,Wunderground v.1.15,2013-08-23 09:20:00,
2013-08-23 05:25:00,71.3,68.2,29.88,NW,309,5.0,5.0,90,0.00,,,0.00,Wunderground v.1.15,2013-08-23 09:25:00,
2013-08-23 05:35:00,71.2,68.1,29.88,NW,317,5.0,6.0,90,0.00,,,0.00,Wunderground v.1.15,2013-08-23 09:35:00,
2013-08-23 05:40:00,71.1,68.0,29.88,NW,315,5.0,5.0,90,0.00,,,0.00,Wunderground v.1.15,2013-08-23 09:40:00,
2013-08-23 05:45:00,71.1,68.0,29.88,NW,318,5.0,5.0,90,0.00,,,0.00,Wunderground v.1.15,2013-08-23 09:45:00,
2013-08-23 05:50:00,71.0,67.9,29.88,NW,313,5.0,5.0,90,0.00,,,0.00,Wunderground v.1.15,2013-08-23 09:50:00,
2013-08-23 05:55:00,70.9,67.8,29.89,NW,324,4.0,5.0,90,0.00,,,0.00,Wunderground v.1.15,2013-08-23 09:55:00,
2013-08-23 06:00:00,70.8,68.0,29.89,NW,318,4.0,6.0,91,0.00,,,0.00,Wunderground v.1.15,2013-08-23 10:00:00,
2013-08-23 06:05:00,70.7,67.9,29.89,NW,322,4.0,6.0,91,0.00,,,0.00,Wunderground v.1.15,2013-08-23 10:05:00,
2013-08-23 06:15:00,70.4,67.6,29.90,NW,322,4.0,7.0,91,0.00,,,0.00,Wunderground v.1.15,2013-08-23 10:15:00,
2013-08-23 06:20:00,70.4,68.0,29.90,NNW,330,4.0,5.0,92,0.00,,,0.00,Wunderground v.1.15,2013-08-23 10:20:00,
2013-08-23 06:25:00,70.2,67.8,29.90,NW,318,5.0,5.0,92,0.00,,,0.00,Wunderground v.1.15,2013-08-23 10:25:00,
2013-08-23 06:30:00,70.2,67.8,29.90,NW,325,5.0,5.0,92,0.00,,,0.00,Wunderground v.1.15,2013-08-23 10:30:00,
2013-08-23 06:35:00,70.1,67.7,29.90,NNW,336,5.0,6.0,92,0.00,,,0.00,Wunderground v.1.15,2013-08-23 10:35:00,
2013-08-23 06:40:00,70.0,67.6,29.90,North,349,5.0,6.0,92,0.00,,,0.00,Wunderground v.1.15,2013-08-23 10:40:00,
2013-08-23 06:45:00,70.1,67.7,29.90,NNW,327,5.0,6.0,92,0.00,,,0.00,Wunderground v.1.15,2013-08-23 10:45:00,
2013-08-23 06:55:00,70.4,68.0,29.90,NNW,328,5.0,6.0,92,0.00,,,0.00,Wunderground v.1.15,2013-08-23 10:55:00,
2013-08-23 07:00:00,70.5,67.7,29.91,NW,312,5.0,5.0,91,0.00,,,0.00,Wunderground v.1.15,2013-08-23 11:00:00,
2013-08-23 07:05:00,70.5,67.7,29.91,North,9,5.0,6.0,91,0.00,,,0.00,Wunderground v.1.15,2013-08-23 11:05:00,
2013-08-23 07:10:00,70.5,67.7,29.91,NNW,333,5.0,5.0,91,0.00,,,0.00,Wunderground v.1.15,2013-08-23 11:10:00,
2013-08-23 07:15:00,70.7,67.9,29.91,NNW,328,5.0,5.0,91,0.00,,,0.00,Wunderground v.1.15,2013-08-23 11:15:00,
2013-08-23 07:20:00,71.0,67.9,29.92,NW,318,5.0,5.0,90,0.00,,,0.00,Wunderground v.1.15,2013-08-23 11:20:00,
2013-08-23 07:25:00,71.3,68.2,29.92,NW,324,4.0,5.0,90,0.00,,,0.00,Wunderground v.1.15,2013-08-23 11:25:00,
2013-08-23 07:35:00,71.6,67.9,29.92,NW,322,6.0,7.0,88,0.00,,,0.00,Wunderground v.1.15,2013-08-23 11:35:00,
2013-08-23 07:40:00,71.6,67.9,29.93,NNW,343,6.0,6.0,88,0.00,,,0.00,Wunderground v.1.15,2013-08-23 11:40:00,
2013-08-23 07:45:00,71.6,67.9,29.93,NNW,334,5.0,6.0,88,0.00,,,0.00,Wunderground v.1.15,2013-08-23 11:45:00,
2013-08-23 07:50:00,71.6,67.9,29.93,NNW,333,5.0,5.0,88,0.00,,,0.00,Wunderground v.1.15,2013-08-23 11:50:00,
2013-08-23 07:55:00,71.8,68.1,29.93,North,355,5.0,6.0,88,0.00,,,0.00,Wunderground v.1.15,2013-08-23 11:55:00,
2013-08-23 08:00:00,71.9,68.2,29.93,NW,325,5.0,5.0,88,0.00,,,0.00,Wunderground v.1.15,2013-08-23 12:00:00,
2013-08-23 08:05:00,71.8,67.7,29.93,NNW,340,5.0,7.0,87,0.00,,,0.00,Wunderground v.1.15,2013-08-23 12:05:00,
2013-08-23 08:15:00,71.9,68.2,29.94,NNW,328,5.0,7.0,88,0.00,,,0.00,Wunderground v.1.15,2013-08-23 12:15:00,
2013-08-23 08:25:00,72.3,68.2,29.94,NNW,333,5.0,5.0,87,0.00,,,0.00,Wunderground v.1.15,2013-08-23 12:25:00,
2013-08-23 08:30:00,72.4,68.3,29.93,North,352,4.0,4.0,87,0.00,,,0.00,Wunderground v.1.15,2013-08-23 12:30:00,
2013-08-23 08:35:00,72.5,68.4,29.93,NNE,25,4.0,5.0,87,0.00,,,0.00,Wunderground v.1.15,2013-08-23 12:35:00,
2013-08-23 08:40:00,72.7,68.3,29.94,North,350,4.0,6.0,86,0.00,,,0.00,Wunderground v.1.15,2013-08-23 12:40:00,
2013-08-23 08:45:00,72.9,68.1,29.94,North,8,4.0,6.0,85,0.00,,,0.00,Wunderground v.1.15,2013-08-23 12:45:00,
2013-08-23 08:50:00,73.0,68.6,29.94,NNW,338,4.0,4.0,86,0.00,,,0.00,Wunderground v.1.15,2013-08-23 12:50:00,
2013-08-23 08:55:00,73.1,68.3,29.94,NNW,339,4.0,4.0,85,0.00,,,0.00,Wunderground v.1.15,2013-08-23 12:55:00,
2013-08-23 09:05:00,73.3,68.5,29.94,North,9,4.0,6.0,85,0.00,,,0.00,Wunderground v.1.15,2013-08-23 13:05:00,
2013-08-23 09:10:00,73.5,68.4,29.94,NW,319,5.0,5.0,84,0.00,,,0.00,Wunderground v.1.15,2013-08-23 13:10:00,
2013-08-23 09:15:00,73.8,68.3,29.94,NNW,344,5.0,5.0,83,0.00,,,0.00,Wunderground v.1.15,2013-08-23 13:15:00,
2013-08-23 09:20:00,74.1,68.3,29.94,NNW,343,5.0,6.0,82,0.00,,,0.00,Wunderground v.1.15,2013-08-23 13:20:00,
2013-08-23 09:25:00,74.2,68.0,29.94,NNW,333,5.0,6.0,81,0.00,,,0.00,Wunderground v.1.15,2013-08-23 13:25:00,
2013-08-23 09:30:00,74.4,67.8,29.94,NNW,339,5.0,5.0,80,0.00,,,0.00,Wunderground v.1.15,2013-08-23 13:30:00,
2013-08-23 09:35:00,74.7,67.4,29.94,NE,39,6.0,6.0,78,0.00,,,0.00,Wunderground v.1.15,2013-08-23 13:35:00,
2013-08-23 09:45:00,75.2,66.3,29.95,NE,44,8.0,9.0,74,0.00,,,0.00,Wunderground v.1.15,2013-08-23 13:45:00,
2013-08-23 09:50:00,75.3,66.4,29.95,NNE,30,8.0,10.0,74,0.00,,,0.00,Wunderground v.1.15,2013-08-23 13:50:00,
2013-08-23 09:55:00,75.4,65.7,29.95,NNE,33,8.0,10.0,72,0.00,,,0.00,Wunderground v.1.15,2013-08-23 13:55:00,
2013-08-23 10:00:00,75.7,66.4,29.95,NE,39,7.0,7.0,73,0.00,,,0.00,Wunderground v.1.15,2013-08-23 14:00:00,
2013-08-23 10:05:00,75.7,65.6,29.95,NE,56,7.0,7.0,71,0.00,,,0.00,Wunderground v.1.15,2013-08-23 14:05:00,
2013-08-23 10:10:00,75.6,66.7,29.95,ENE,63,7.0,7.0,74,0.00,,,0.00,Wunderground v.1.15,2013-08-23 14:10:00,
2013-08-23 10:15:00,75.1,65.9,29.95,ENE,58,7.0,8.0,73,0.00,,,0.00,Wunderground v.1.15,2013-08-23 14:15:00,
2013-08-23 10:25:00,74.6,66.5,29.95,NE,56,6.0,7.0,76,0.00,,,0.00,Wunderground v.1.15,2013-08-23 14:25:00,
2013-08-23 10:30:00,74.6,66.1,29.95,ENE,67,6.0,7.0,75,0.00,,,0.00,Wunderground v.1.15,2013-08-23 14:30:00,
2013-08-23 10:35:00,74.5,66.4,29.95,NE,53,7.0,7.0,76,0.00,,,0.00,Wunderground v.1.15,2013-08-23 14:35:00,
2013-08-23 10:40:00,74.5,66.8,29.95,NE,49,6.0,6.0,77,0.00,,,0.00,Wunderground v.1.15,2013-08-23 14:40:00,
2013-08-23 10:45:00,74.6,66.5,29.95,NNW,343,6.0,6.0,76,0.00,,,0.00,Wunderground v.1.15,2013-08-23 14:45:00,
2013-08-23 10:50:00,75.3,65.6,29.95,NNW,345,6.0,6.0,72,0.00,,,0.00,Wunderground v.1.15,2013-08-23 14:50:00,
2013-08-23 10:55:00,75.4,65.7,29.95,NNW,336,7.0,7.0,72,0.00,,,0.00,Wunderground v.1.15,2013-08-23 14:55:00,
2013-08-23 11:05:00,75.6,65.5,29.95,NNE,22,6.0,9.0,71,0.00,,,0.00,Wunderground v.1.15,2013-08-23 15:05:00,
2013-08-23 11:10:00,75.7,64.8,29.95,NE,48,7.0,8.0,69,0.00,,,0.00,Wunderground v.1.15,2013-08-23 15:10:00,
2013-08-23 11:15:00,76.0,65.1,29.95,North,355,7.0,8.0,69,0.00,,,0.00,Wunderground v.1.15,2013-08-23 15:15:00,
2013-08-23 11:20:00,76.0,64.2,29.95,North,9,8.0,10.0,67,0.00,,,0.00,Wunderground v.1.15,2013-08-23 15:20:00,
2013-08-23 11:25:00,76.2,64.0,29.95,North,354,8.0,10.0,66,0.00,,,0.00,Wunderground v.1.15,2013-08-23 15:25:00,
2013-08-23 11:30:00,76.5,63.4,29.95,NNE,26,7.0,10.0,64,0.00,,,0.00,Wunderground v.1.15,2013-08-23 15:30:00,
2013-08-23 11:35:00,76.7,64.0,29.95,NNE,19,7.0,10.0,65,0.00,,,0.00,Wunderground v.1.15,2013-08-23 15:35:00,
2013-08-23 11:40:00,77.0,63.0,29.95,NNE,18,8.0,14.0,62,0.00,,,0.00,Wunderground v.1.15,2013-08-23 15:40:00,
2013-08-23 11:50:00,77.4,62.9,29.95,North,8,7.0,7.0,61,0.00,,,0.00,Wunderground v.1.15,2013-08-23 15:50:00,
2013-08-23 11:55:00,77.4,61.5,29.95,NNE,27,7.0,7.0,58,0.00,,,0.00,Wunderground v.1.15,2013-08-23 15:55:00,
2013-08-23 12:00:00,77.6,61.7,29.95,NNE,25,7.0,9.0,58,0.00,,,0.00,Wunderground v.1.15,2013-08-23 16:00:00,
2013-08-23 12:05:00,77.5,61.6,29.95,NNE,30,7.0,9.0,58,0.00,,,0.00,Wunderground v.1.15,2013-08-23 16:05:00,
2013-08-23 12:10:00,77.5,62.0,29.95,NNW,327,7.0,7.0,59,0.00,,,0.00,Wunderground v.1.15,2013-08-23 16:10:00,
2013-08-23 12:15:00,77.2,61.8,29.95,NNW,345,7.0,7.0,59,0.00,,,0.00,Wunderground v.1.15,2013-08-23 16:15:00,
2013-08-23 12:20:00,77.1,62.1,29.96,NNW,346,7.0,7.0,60,0.00,,,0.00,Wunderground v.1.15,2013-08-23 16:20:00,
2013-08-23 12:30:00,77.2,62.2,29.95,NNW,330,5.0,6.0,60,0.00,,,0.00,Wunderground v.1.15,2013-08-23 16:30:00,
2013-08-23 12:35:00,77.6,60.7,29.95,NNE,18,5.0,6.0,56,0.00,,,0.00,Wunderground v.1.15,2013-08-23 16:35:00,
2013-08-23 12:40:00,77.8,60.8,29.95,NNW,340,6.0,6.0,56,0.00,,,0.00,Wunderground v.1.15,2013-08-23 16:40:00,
2013-08-23 12:45:00,78.0,59.5,29.95,NNE,13,6.0,6.0,53,0.00,,,0.00,Wunderground v.1.15,2013-08-23 16:45:00,
2013-08-23 12:50:00,78.2,58.6,29.95,North,6,6.0,9.0,51,0.00,,,0.00,Wunderground v.1.15,2013-08-23 16:50:00,
2013-08-23 12:55:00,78.2,58.0,29.95,NE,40,5.0,9.0,50,0.00,,,0.00,Wunderground v.1.15,2013-08-23 16:55:00,
2013-08-23 13:00:00,77.3,63.7,29.95,NE,43,5.0,5.0,63,0.00,,,0.00,Wunderground v.1.15,2013-08-23 17:00:00,
2013-08-23 13:10:00,76.5,61.6,29.95,NE,44,4.0,4.0,60,0.00,,,0.00,Wunderground v.1.15,2013-08-23 17:10:00,
2013-08-23 13:15:00,76.3,61.9,29.96,ENE,59,5.0,5.0,61,0.00,,,0.00,Wunderground v.1.15,2013-08-23 17:15:00,
2013-08-23 13:20:00,76.2,61.3,29.96,ENE,72,4.0,4.0,60,0.00,,,0.00,Wunderground v.1.15,2013-08-23 17:20:00,
2013-08-23 13:25:00,76.5,61.6,29.96,East,84,4.0,5.0,60,0.00,,,0.00,Wunderground v.1.15,2013-08-23 17:25:00,
2013-08-23 13:30:00,76.6,60.7,29.96,East,98,4.0,5.0,58,0.00,,,0.00,Wunderground v.1.15,2013-08-23 17:30:00,
2013-08-23 13:35:00,76.9,60.5,29.96,SE,127,4.0,5.0,57,0.00,,,0.00,Wunderground v.1.15,2013-08-23 17:35:00,
2013-08-23 13:40:00,77.0,59.1,29.96,East,91,4.0,4.0,54,0.00,,,0.00,Wunderground v.1.15,2013-08-23 17:40:00,
2013-08-23 13:50:00,76.9,61.0,29.96,East,98,3.0,3.0,58,0.00,,,0.00,Wunderground v.1.15,2013-08-23 17:50:00,
2013-08-23 13:55:00,76.9,60.0,29.96,East,98,4.0,4.0,56,0.00,,,0.00,Wunderground v.1.15,2013-08-23 17:55:00,
2013-08-23 14:00:00,76.7,61.8,29.96,East,88,4.0,4.0,60,0.00,,,0.00,Wunderground v.1.15,2013-08-23 18:00:00,
2013-08-23 14:05:00,76.5,61.1,29.96,East,101,4.0,4.0,59,0.00,,,0.00,Wunderground v.1.15,2013-08-23 18:05:00,
2013-08-23 14:10:00,76.4,60.5,29.96,ESE,105,3.0,4.0,58,0.00,,,0.00,Wunderground v.1.15,2013-08-23 18:10:00,
2013-08-23 14:15:00,76.5,60.1,29.96,ESE,106,3.0,4.0,57,0.00,,,0.00,Wunderground v.1.15,2013-08-23 18:15:00,
2013-08-23 14:20:00,76.5,61.1,29.96,East,88,3.0,3.0,59,0.00,,,0.00,Wunderground v.1.15,2013-08-23 18:20:00,
2013-08-23 14:30:00,76.6,60.2,29.96,East,81,2.0,2.0,57,0.00,,,0.00,Wunderground v.1.15,2013-08-23 18:30:00,
2013-08-23 14:35:00,76.8,60.4,29.95,East,83,2.0,4.0,57,0.00,,,0.00,Wunderground v.1.15,2013-08-23 18:35:00,
2013-08-23 14:40:00,76.6,61.2,29.96,SE,139,3.0,3.0,59,0.00,,,0.00,Wunderground v.1.15,2013-08-23 18:40:00,
2013-08-23 14:45:00,76.4,62.0,29.96,SE,146,3.0,3.0,61,0.00,,,0.00,Wunderground v.1.15,2013-08-23 18:45:00,
2013-08-23 14:50:00,76.3,62.8,29.96,ESE,117,2.0,2.0,63,0.00,,,0.00,Wunderground v.1.15,2013-08-23 18:50:00,
2013-08-23 14:55:00,76.3,62.8,29.96,ESE,120,2.0,2.0,63,0.00,,,0.00,Wunderground v.1.15,2013-08-23 18:55:00,
2013-08-23 15:00:00,76.3,61.9,29.96,East,89,2.0,3.0,61,0.00,,,0.00,Wunderground v.1.15,2013-08-23 19:00:00,
2013-08-23 15:10:00,76.3,61.9,29.96,NE,43,3.0,3.0,61,0.00,,,0.00,Wunderground v.1.15,2013-08-23 19:10:00,
2013-08-23 15:15:00,76.4,62.0,29.96,East,79,2.0,3.0,61,0.00,,,0.00,Wunderground v.1.15,2013-08-23 19:15:00,
2013-08-23 15:20:00,76.4,61.0,29.96,NE,56,2.0,2.0,59,0.00,,,0.00,Wunderground v.1.15,2013-08-23 19:20:00,
2013-08-23 15:25:00,76.5,61.6,29.96,NE,41,2.0,2.0,60,0.00,,,0.00,Wunderground v.1.15,2013-08-23 19:25:00,
2013-08-23 15:30:00,76.7,61.3,29.95,East,82,1.0,1.0,59,0.00,,,0.00,Wunderground v.1.15,2013-08-23 19:30:00,
2013-08-23 15:35:00,76.8,61.9,29.95,ENE,72,1.0,1.0,60,0.00,,,0.00,Wunderground v.1.15,2013-08-23 19:35:00,
2013-08-23 15:40:00,76.8,61.9,29.95,East,93,1.0,1.0,60,0.00,,,0.00,Wunderground v.1.15,2013-08-23 19:40:00,
2013-08-23 15:45:00,76.9,62.9,29.95,SSE,159,1.0,1.0,62,0.00,,,0.00,Wunderground v.1.15,2013-08-23 19:45:00,
2013-08-23 15:55:00,77.1,64.4,29.95,SE,145,1.0,1.0,65,0.00,,,0.00,Wunderground v.1.15,2013-08-23 19:55:00,
2013-08-23 16:00:00,77.4,62.4,29.95,NW,316,1.0,1.0,60,0.00,,,0.00,Wunderground v.1.15,2013-08-23 20:00:00,
2013-08-23 16:05:00,77.4,63.8,29.95,ESE,115,1.0,1.0,63,0.00,,,0.00,Wunderground v.1.15,2013-08-23 20:05:00,
2013-08-23 16:10:00,77.7,61.3,29.95,North,5,2.0,3.0,57,0.00,,,0.00,Wunderground v.1.15,2013-08-23 20:10:00,
2013-08-23 16:15:00,78.1,60.6,29.95,NW,321,2.0,3.0,55,0.00,,,0.00,Wunderground v.1.15,2013-08-23 20:15:00,
2013-08-23 16:20:00,78.1,60.1,29.95,NW,318,2.0,4.0,54,0.00,,,0.00,Wunderground v.1.15,2013-08-23 20:20:00,
2013-08-23 16:25:00,78.2,60.7,29.95,NNW,327,3.0,4.0,55,0.00,,,0.00,Wunderground v.1.15,2013-08-23 20:25:00,
2013-08-23 16:35:00,78.2,60.7,29.96,East,88,3.0,6.0,55,0.00,,,0.00,Wunderground v.1.15,2013-08-23 20:35:00,
2013-08-23 16:40:00,77.0,65.2,29.95,SE,126,4.0,4.0,67,0.00,,,0.00,Wunderground v.1.15,2013-08-23 20:40:00,
2013-08-23 16:45:00,76.6,63.5,29.96,ESE,108,4.0,4.0,64,0.00,,,0.00,Wunderground v.1.15,2013-08-23 20:45:00,
2013-08-23 16:50:00,76.7,64.0,29.95,East,98,4.0,4.0,65,0.00,,,0.00,Wunderground v.1.15,2013-08-23 20:50:00,
2013-08-23 16:55:00,76.6,63.5,29.95,ENE,75,3.0,4.0,64,0.00,,,0.00,Wunderground v.1.15,2013-08-23 20:55:00,
2013-08-23 17:00:00,76.9,61.0,29.96,NE,49,4.0,6.0,58,0.00,,,0.00,Wunderground v.1.15,2013-08-23 21:00:00,
2013-08-23 17:05:00,77.1,60.2,29.95,ENE,67,5.0,8.0,56,0.00,,,0.00,Wunderground v.1.15,2013-08-23 21:05:00,
2013-08-23 17:15:00,77.4,60.5,29.96,NE,40,6.0,6.0,56,0.00,,,0.00,Wunderground v.1.15,2013-08-23 21:15:00,
2013-08-23 17:20:00,77.2,61.8,29.96,ENE,67,5.0,5.0,59,0.00,,,0.00,Wunderground v.1.15,2013-08-23 21:20:00,
2013-08-23 17:25:00,77.1,62.1,29.96,NE,51,5.0,5.0,60,0.00,,,0.00,Wunderground v.1.15,2013-08-23 21:25:00,
2013-08-23 17:30:00,76.9,62.4,29.95,NE,36,4.0,4.0,61,0.00,,,0.00,Wunderground v.1.15,2013-08-23 21:30:00,
2013-08-23 17:35:00,76.8,63.2,29.95,NE,34,5.0,5.0,63,0.00,,,0.00,Wunderground v.1.15,2013-08-23 21:35:00,
2013-08-23 17:40:00,76.7,61.8,29.95,NNE,29,5.0,5.0,60,0.00,,,0.00,Wunderground v.1.15,2013-08-23 21:40:00,
2013-08-23 17:45:00,76.7,62.2,29.95,NE,44,5.0,5.0,61,0.00,,,0.00,Wunderground v.1.15,2013-08-23 21:45:00,
2013-08-23 17:55:00,76.9,61.0,29.96,NNE,18,4.0,5.0,58,0.00,,,0.00,Wunderground v.1.15,2013-08-23 21:55:00,
2013-08-23 18:00:00,77.0,60.6,29.96,NE,44,3.0,4.0,57,0.00,,,0.00,Wunderground v.1.15,2013-08-23 22:00:00,
2013-08-23 18:05:00,77.0,61.1,29.96,ENE,58,3.0,4.0,58,0.00,,,0.00,Wunderground v.1.15,2013-08-23 22:05:00,
2013-08-23 18:10:00,76.9,61.0,29.96,NNE,32,4.0,4.0,58,0.00,,,0.00,Wunderground v.1.15,2013-08-23 22:10:00,
2013-08-23 18:15:00,76.8,61.4,29.96,NNE,18,3.0,4.0,59,0.00,,,0.00,Wunderground v.1.15,2013-08-23 22:15:00,
2013-08-23 18:20:00,76.8,60.9,29.96,NNE,27,3.0,4.0,58,0.00,,,0.00,Wunderground v.1.15,2013-08-23 22:20:00,
2013-08-23 18:25:00,76.7,61.3,29.96,NE,36,4.0,4.0,59,0.00,,,0.00,Wunderground v.1.15,2013-08-23 22:25:00,
2013-08-23 18:35:00,76.5,61.6,29.97,NNW,338,3.0,4.0,60,0.00,,,0.00,Wunderground v.1.15,2013-08-23 22:35:00,
2013-08-23 18:45:00,76.5,62.5,29.97,NW,324,2.0,3.0,62,0.00,,,0.00,Wunderground v.1.15,2013-08-23 22:45:00,
2013-08-23 18:50:00,76.2,62.2,29.97,NW,321,1.0,1.0,62,0.00,,,0.00,Wunderground v.1.15,2013-08-23 22:50:00,
2013-08-23 18:55:00,76.0,62.5,29.98,NW,311,0.0,1.0,63,0.00,,,0.00,Wunderground v.1.15,2013-08-23 22:55:00,
2013-08-23 19:00:00,75.7,62.7,29.98,NW,305,1.0,1.0,64,0.00,,,0.00,Wunderground v.1.15,2013-08-23 23:00:00,
2013-08-23 19:05:00,75.6,63.4,29.98,NNW,327,1.0,1.0,66,0.00,,,0.00,Wunderground v.1.15,2013-08-23 23:05:00,
2013-08-23 19:10:00,75.3,63.6,29.98,NW,321,1.0,1.0,67,0.00,,,0.00,Wunderground v.1.15,2013-08-23 23:10:00,
2013-08-23 19:15:00,75.2,64.3,29.98,NW,322,0.0,1.0,69,0.00,,,0.00,Wunderground v.1.15,2013-08-23 23:15:00,
2013-08-23 19:25:00,75.0,62.9,29.98,NW,321,0.0,0.0,66,0.00,,,0.00,Wunderground v.1.15,2013-08-23 23:25:00,
2013-08-23 19:30:00,75.1,63.4,29.99,NW,322,0.0,0.0,67,0.00,,,0.00,Wunderground v.1.15,2013-08-23 23:30:00,
2013-08-23 19:35:00,75.0,63.3,29.99,NW,322,0.0,0.0,67,0.00,,,0.00,Wunderground v.1.15,2013-08-23 23:35:00,
2013-08-23 19:40:00,74.8,63.1,29.99,NW,322,0.0,0.0,67,0.00,,,0.00,Wunderground v.1.15,2013-08-23 23:40:00,
2013-08-23 19:45:00,74.6,63.8,29.99,NW,322,0.0,0.0,69,0.00,,,0.00,Wunderground v.1.15,2013-08-23 23:45:00,
2013-08-23 19:50:00,74.3,63.5,29.99,NW,322,0.0,0.0,69,0.00,,,0.00,Wunderground v.1.15,2013-08-23 23:50:00,
2013-08-23 19:55:00,74.2,63.4,29.99,NW,322,0.0,0.0,69,0.00,,,0.00,Wunderground v.1.15,2013-08-23 23:55:00,
2013-08-23 20:05:00,73.7,63.3,30.00,NW,321,0.0,0.0,70,0.00,,,0.00,Wunderground v.1.15,2013-08-24 00:05:00,
2013-08-23 20:10:00,73.5,63.5,30.00,NW,322,0.0,0.0,71,0.00,,,0.00,Wunderground v.1.15,2013-08-24 00:10:00,
2013-08-23 20:15:00,73.1,62.7,30.00,NW,322,0.0,0.0,70,0.00,,,0.00,Wunderground v.1.15,2013-08-24 00:15:00,
2013-08-23 20:20:00,73.0,63.0,30.00,NW,322,0.0,0.0,71,0.00,,,0.00,Wunderground v.1.15,2013-08-24 00:20:00,
2013-08-23 20:25:00,72.8,63.2,30.00,NW,321,0.0,0.0,72,0.00,,,0.00,Wunderground v.1.15,2013-08-24 00:25:00,
2013-08-23 20:30:00,72.6,63.8,30.01,NW,322,0.0,0.0,74,0.00,,,0.00,Wunderground v.1.15,2013-08-24 00:30:00,
2013-08-23 20:35:00,72.2,63.8,30.01,NW,322,0.0,0.0,75,0.00,,,0.00,Wunderground v.1.15,2013-08-24 00:35:00,
2013-08-23 20:45:00,71.8,63.4,30.01,NW,322,0.0,0.0,75,0.00,,,0.00,Wunderground v.1.15,2013-08-24 00:45:00,
2013-08-23 20:50:00,71.5,63.9,30.01,NW,322,0.0,0.0,77,0.00,,,0.00,Wunderground v.1.15,2013-08-24 00:50:00,
2013-08-23 21:00:00,71.2,64.0,30.02,NW,322,0.0,0.0,78,0.00,,,0.00,Wunderground v.1.15,2013-08-24 01:00:00,
2013-08-23 21:05:00,71.2,64.0,30.02,NW,322,0.0,0.0,78,0.00,,,0.00,Wunderground v.1.15,2013-08-24 01:05:00,
2013-08-23 21:10:00,71.2,64.4,30.02,North,360,0.0,2.0,79,0.00,,,0.00,Wunderground v.1.15,2013-08-24 01:10:00,
2013-08-23 21:15:00,71.6,63.6,30.02,NNE,12,1.0,4.0,76,0.00,,,0.00,Wunderground v.1.15,2013-08-24 01:15:00,
2013-08-23 21:25:00,73.1,63.1,30.02,NNE,33,3.0,4.0,71,0.00,,,0.00,Wunderground v.1.15,2013-08-24 01:25:00,
2013-08-23 21:30:00,73.4,63.4,30.02,NE,45,3.0,3.0,71,0.00,,,0.00,Wunderground v.1.15,2013-08-24 01:30:00,
2013-08-23 21:35:00,73.7,62.9,30.03,NE,36,4.0,5.0,69,0.00,,,0.00,Wunderground v.1.15,2013-08-24 01:35:00,
2013-08-23 21:40:00,74.0,62.8,30.03,NE,41,4.0,4.0,68,0.00,,,0.00,Wunderground v.1.15,2013-08-24 01:40:00,
2013-08-23 21:45:00,74.1,62.4,30.03,NNE,20,4.0,6.0,67,0.00,,,0.00,Wunderground v.1.15,2013-08-24 01:45:00,
2013-08-23 21:50:00,74.1,62.9,30.03,NE,40,5.0,5.0,68,0.00,,,0.00,Wunderground v.1.15,2013-08-24 01:50:00,
2013-08-23 21:55:00,74.1,63.3,30.03,NE,46,4.0,5.0,69,0.00,,,0.00,Wunderground v.1.15,2013-08-24 01:55:00,
2013-08-23 22:05:00,73.9,63.1,30.04,NNE,26,3.0,5.0,69,0.00,,,0.00,Wunderground v.1.15,2013-08-24 02:05:00,
2013-08-23 22:10:00,73.7,62.9,30.04,NNE,16,4.0,4.0,69,0.00,,,0.00,Wunderground v.1.15,2013-08-24 02:10:00,
2013-08-23 22:15:00,73.5,62.7,30.03,NNE,26,4.0,6.0,69,0.00,,,0.00,Wunderground v.1.15,2013-08-24 02:15:00,
2013-08-23 22:20:00,73.5,62.7,30.04,NNE,26,4.0,4.0,69,0.00,,,0.00,Wunderground v.1.15,2013-08-24 02:20:00,
2013-08-23 22:25:00,73.4,63.0,30.04,NNW,343,4.0,4.0,70,0.00,,,0.00,Wunderground v.1.15,2013-08-24 02:25:00,
2013-08-23 22:30:00,73.2,63.2,30.04,NNE,22,3.0,3.0,71,0.00,,,0.00,Wunderground v.1.15,2013-08-24 02:30:00,
2013-08-23 22:40:00,72.9,63.7,30.04,NNW,330,3.0,3.0,73,0.00,,,0.00,Wunderground v.1.15,2013-08-24 02:40:00,
2013-08-23 22:45:00,72.6,63.1,30.04,NNW,336,2.0,3.0,72,0.00,,,0.00,Wunderground v.1.15,2013-08-24 02:45:00,
2013-08-23 22:50:00,72.2,62.3,30.04,NNW,333,2.0,2.0,71,0.00,,,0.00,Wunderground v.1.15,2013-08-24 02:50:00,
2013-08-23 22:55:00,71.9,62.0,30.04,NW,325,2.0,2.0,71,0.00,,,0.00,Wunderground v.1.15,2013-08-24 02:55:00,
2013-08-23 23:00:00,71.5,61.6,30.04,NW,319,2.0,3.0,71,0.00,,,0.00,Wunderground v.1.15,2013-08-24 03:00:00,
2013-08-23 23:05:00,71.3,61.0,30.05,NW,323,2.0,3.0,70,0.00,,,0.00,Wunderground v.1.15,2013-08-24 03:05:00,
2013-08-23 23:10:00,71.0,61.1,30.05,NW,322,2.0,2.0,71,0.00,,,0.00,Wunderground v.1.15,2013-08-24 03:10:00,
2013-08-23 23:15:00,70.7,60.8,30.05,NNW,327,2.0,2.0,71,0.00,,,0.00,Wunderground v.1.15,2013-08-24 03:15:00,
2013-08-23 23:25:00,70.5,61.0,30.05,NNW,343,2.0,2.0,72,0.00,,,0.00,Wunderground v.1.15,2013-08-24 03:25:00,
2013-08-23 23:30:00,70.5,60.6,30.05,NNE,20,2.0,4.0,71,0.00,,,0.00,Wunderground v.1.15,2013-08-24 03:30:00,
2013-08-23 23:35:00,70.6,60.7,30.05,North,351,2.0,4.0,71,0.00,,,0.00,Wunderground v.1.15,2013-08-24 03:35:00,
2013-08-23 23:40:00,70.6,60.7,30.05,NW,326,2.0,2.0,71,0.00,,,0.00,Wunderground v.1.15,2013-08-24 03:40:00,
2013-08-23 23:45:00,70.3,60.1,30.06,NW,314,2.0,3.0,70,0.00,,,0.00,Wunderground v.1.15,2013-08-24 03:45:00,
2013-08-23 23:50:00,69.9,60.1,30.06,NW,322,2.0,3.0,71,0.00,,,0.00,Wunderground v.1.15,2013-08-24 03:50:00,
2013-08-23 23:55:00,69.6,59.8,30.06,NW,325,3.0,3.0,71,0.00,,,0.00,Wunderground v.1.15,2013-08-24 03:55:00,